Location: Azul
(36.7830°S, 59.8500°W)
Time: 09:55:05
(UTC-03:00)

ISS - Pass Details

Date: 16 December 2017
Orbit: 402 x 406 km, 51.6° (Epoch: 16 December)

Event Time Altitude Azimuth Distance (km) Brightness Sun altitude
Exits shadow 01:20:21 15° 189° (S) 1,236 -0.6 -29.6°
Drops below altitude 10° 01:21:40 10° 166° (SSE) 1,487 -0.1 -29.6°
Sets 01:24:24 0° 142° (SE) 2,353 0.9 -29.5°
